| time (UTC) | temp C | wind direction | speed KPH | gust KPH | rain 1hr cm | rain 24hr cm | rain mn cm | humidity % | barometer mb |
| 20260504080122 | 6 | 227 | 4.8 | 8.0 | 0.00 | 0.00 | 0.00 | 10 | 1015.5 |
| 20260504050439 | 10 | 168 | 6.4 | 8.0 | 0.00 | 0.00 | 0.00 | 10 | 1015.0 |
| 20260504045936 | 10 | 78 | 8.0 | 9.7 | 0.00 | 0.00 | 0.00 | 10 | 1014.9 |
| 20260504045432 | 10 | 326 | 22.5 | 29.0 | 0.00 | 0.00 | 0.00 | 10 | 1014.9 |
| 20260504044928 | 10 | 50 | 19.3 | 24.1 | 0.00 | 0.00 | 0.00 | 10 | 1014.6 |
| 20260504044426 | 11 | 330 | 19.3 | 22.5 | 0.00 | 0.00 | 0.00 | 10 | 1014.5 |
| 20260504043923 | 11 | 353 | 14.5 | 20.9 | 0.00 | 0.00 | 0.00 | 10 | 1014.4 |
| 20260504043420 | 11 | 343 | 11.3 | 12.9 | 0.00 | 0.00 | 0.00 | 10 | 1014.5 |
| 20260504042917 | 11 | 10 | 19.3 | 25.7 | 0.00 | 0.00 | 0.00 | 10 | 1014.4 |
| 20260504042414 | 11 | 20 | 14.5 | 20.9 | 0.00 | 0.00 | 0.00 | 10 | 1014.3 |
| 20260504041910 | 11 | 339 | 8.0 | 12.9 | 0.00 | 0.00 | 0.00 | 10 | 1014.2 |
| 20260504041406 | 11 | 101 | 6.4 | 8.0 | 0.00 | 0.00 | 0.00 | 10 | 1014.1 |
| 20260504040902 | 11 | 211 | 6.4 | 8.0 | 0.00 | 0.00 | 0.00 | 10 | 1014.1 |
| 20260504040400 | 11 | 330 | 11.3 | 12.9 | 0.00 | 0.00 | 0.00 | 10 | 1014.0 |
| 20260504035856 | 11 | 325 | 8.0 | 11.3 | 0.00 | 0.00 | 0.00 | 10 | 1013.7 |
| 20260504035354 | 11 | 3 | 11.3 | 12.9 | 0.00 | 0.00 | 0.00 | 10 | 1013.9 |
| 20260504034850 | 11 | 194 | 4.8 | 4.8 | 0.00 | 0.00 | 0.00 | 10 | 1013.7 |
| 20260504034348 | 12 | 10 | 12.9 | 16.1 | 0.00 | 0.00 | 0.00 | 10 | 1013.6 |
| 20260504033844 | 12 | 158 | 9.7 | 11.3 | 0.00 | 0.00 | 0.00 | 10 | 1013.4 |
| 20260504033343 | 12 | 31 | 8.0 | 11.3 | 0.00 | 0.00 | 0.00 | 10 | 1013.2 |
| 20260504032839 | 12 | 37 | 8.0 | 11.3 | 0.00 | 0.00 | 0.00 | 10 | 1013.1 |
| 20260504032336 | 12 | 103 | 8.0 | 11.3 | 0.00 | 0.00 | 0.00 | 10 | 1012.8 |
| 20260504031833 | 13 | 89 | 4.8 | 8.0 | 0.00 | 0.00 | 0.00 | 10 | 1012.6 |
| 20260504031330 | 13 | 141 | 0.0 | 0.0 | 0.00 | 0.00 | 0.00 | 10 | 1012.5 |
| 20260504030826 | 13 | 21 | 4.8 | 8.0 | 0.00 | 0.00 | 0.00 | 10 | 1012.3 |
| 20260504030324 | 13 | 100 | 3.2 | 3.2 | 0.00 | 0.00 | 0.00 | 10 | 1012.4 |
| 20260504025820 | 13 | 33 | 8.0 | 11.3 | 0.00 | 0.00 | 0.00 | 10 | 1012.2 |
| 20260504025317 | 13 | 41 | 8.0 | 11.3 | 0.00 | 0.00 | 0.00 | 10 | 1012.1 |
| 20260504024813 | 13 | 88 | 8.0 | 11.3 | 0.00 | 0.00 | 0.00 | 10 | 1012.1 |
| 20260504024310 | 13 | 32 | 11.3 | 14.5 | 0.00 | 0.00 | 0.00 | 10 | 1011.7 |
| 20260504023807 | 13 | 358 | 12.9 | 12.9 | 0.00 | 0.00 | 0.00 | 10 | 1011.5 |
| 20260504023303 | 13 | 121 | 6.4 | 9.7 | 0.00 | 0.00 | 0.00 | 10 | 1011.6 |
| 20260504022759 | 13 | 58 | 11.3 | 14.5 | 0.00 | 0.00 | 0.00 | 10 | 1011.5 |
| 20260504022256 | 13 | 3 | 17.7 | 24.1 | 0.00 | 0.00 | 0.00 | 10 | 1011.6 |
| 20260504021752 | 13 | 347 | 12.9 | 14.5 | 0.00 | 0.00 | 0.00 | 10 | 1010.9 |
| 20260504021250 | 14 | 23 | 24.1 | 33.8 | 0.00 | 0.00 | 0.00 | 10 | 1011.2 |
| 20260504020747 | 14 | 17 | 20.9 | 25.7 | 0.00 | 0.00 | 0.00 | 10 | 1010.8 |
| 20260504020243 | 15 | 6 | 20.9 | 24.1 | 0.00 | 0.00 | 0.00 | 10 | 1010.7 |
| 20260504015739 | 15 | 20 | 12.9 | 14.5 | 0.00 | 0.00 | 0.00 | 10 | 1010.8 |
| 20260504015236 | 15 | 359 | 30.6 | 37.0 | 0.00 | 0.00 | 0.00 | 10 | 1010.6 |
| 20260504014732 | 15 | 1 | 16.1 | 20.9 | 0.00 | 0.00 | 0.00 | 10 | 1010.6 |
| 20260504014228 | 15 | 16 | 24.1 | 32.2 | 0.00 | 0.00 | 0.00 | 10 | 1010.3 |
| 20260504013726 | 16 | 55 | 16.1 | 17.7 | 0.00 | 0.00 | 0.00 | 10 | 1010.1 |
| 20260504013224 | 17 | 51 | 16.1 | 20.9 | 0.00 | 0.00 | 0.00 | 10 | 1010.1 |
| 20260504012720 | 17 | 11 | 12.9 | 16.1 | 0.00 | 0.00 | 0.00 | 10 | 1009.9 |
| 20260504012218 | 17 | 29 | 14.5 | 16.1 | 0.00 | 0.00 | 0.00 | 10 | 1009.9 |
| 20260504011715 | 17 | 10 | 11.3 | 14.5 | 0.00 | 0.00 | 0.00 | 10 | 1009.7 |
| 20260504011212 | 17 | 8 | 12.9 | 14.5 | 0.00 | 0.00 | 0.00 | 10 | 1009.8 |
| 20260504010708 | 17 | 6 | 14.5 | 16.1 | 0.00 | 0.00 | 0.00 | 10 | 1009.7 |
| 20260504010203 | 17 | 2 | 17.7 | 20.9 | 0.00 | 0.00 | 0.00 | 10 | 1009.9 |
| 20260504005700 | 17 | 266 | 11.3 | 14.5 | 0.00 | 0.00 | 0.00 | 10 | 1009.7 |
| 20260504005157 | 17 | 314 | 14.5 | 16.1 | 0.00 | 0.00 | 0.00 | 10 | 1009.6 |
| 20260504004655 | 17 | 6 | 11.3 | 14.5 | 0.00 | 0.00 | 0.00 | 10 | 1009.7 |
| 20260504004152 | 18 | 46 | 16.1 | 17.7 | 0.00 | 0.00 | 0.00 | 10 | 1009.8 |
| 20260504003648 | 18 | 34 | 11.3 | 14.5 | 0.00 | 0.00 | 0.00 | 10 | 1009.7 |
| 20260504003145 | 17 | 27 | 19.3 | 27.4 | 0.00 | 0.00 | 0.00 | 10 | 1009.4 |
| 20260504002642 | 17 | 2 | 25.7 | 32.2 | 0.00 | 0.00 | 0.00 | 10 | 1009.6 |
| 20260504002139 | 18 | 9 | 22.5 | 25.7 | 0.00 | 0.00 | 0.00 | 10 | 1009.5 |
| 20260504001637 | 18 | 331 | 20.9 | 24.1 | 0.00 | 0.00 | 0.00 | 10 | 1009.5 |
| 20260504001133 | 18 | 27 | 17.7 | 25.7 | 0.00 | 0.00 | 0.00 | 10 | 1009.1 |
| 20260504000630 | 18 | 18 | 19.3 | 25.7 | 0.00 | 0.00 | 0.00 | 10 | 1009.5 |
| 20260504000127 | 18 | 327 | 19.3 | 25.7 | 0.00 | 0.00 | 0.00 | 10 | 1009.4 |
| 20260503235626 | 18 | 35 | 8.0 | 11.3 | 0.00 | 0.00 | 0.00 | 10 | 1009.0 |
| 20260503235122 | 18 | 342 | 17.7 | 24.1 | 0.00 | 0.00 | 0.00 | 10 | 1008.9 |
| 20260503234620 | 18 | 41 | 17.7 | 25.7 | 0.00 | 0.00 | 0.00 | 10 | 1008.9 |
| 20260503234118 | 18 | 340 | 14.5 | 14.5 | 0.00 | 0.00 | 0.00 | 10 | 1008.9 |
| 20260503233615 | 18 | 10 | 24.1 | 32.2 | 0.00 | 0.00 | 0.00 | 10 | 1008.7 |
| 20260503233110 | 18 | 96 | 19.3 | 24.1 | 0.00 | 0.00 | 0.00 | 10 | 1008.6 |
| 20260503232607 | 18 | 14 | 22.5 | 29.0 | 0.00 | 0.00 | 0.00 | 10 | 1009.0 |
| 20260503232105 | 18 | 18 | 16.1 | 20.9 | 0.00 | 0.00 | 0.00 | 10 | 1008.8 |
| 20260503231603 | 18 | 4 | 27.4 | 32.2 | 0.00 | 0.00 | 0.00 | 10 | 1008.9 |
| 20260503231059 | 19 | 24 | 17.7 | 24.1 | 0.00 | 0.00 | 0.00 | 10 | 1008.6 |
| 20260503230555 | 19 | 34 | 29.0 | 40.2 | 0.00 | 0.00 | 0.00 | 10 | 1008.8 |
| 20260503230053 | 20 | 196 | 17.7 | 24.1 | 0.00 | 0.00 | 0.00 | 10 | 1008.3 |
| 20260503225550 | 19 | 1 | 17.7 | 27.4 | 0.00 | 0.00 | 0.00 | 10 | 1008.6 |
| 20260503225045 | 20 | 7 | 19.3 | 24.1 | 0.00 | 0.00 | 0.00 | 10 | 1008.2 |
| 20260503224543 | 19 | 10 | 19.3 | 22.5 | 0.00 | 0.00 | 0.00 | 10 | 1008.3 |
| 20260503224040 | 20 | 10 | 19.3 | 25.7 | 0.00 | 0.00 | 0.00 | 10 | 1008.2 |
| 20260503223538 | 20 | 29 | 16.1 | 24.1 | 0.00 | 0.00 | 0.00 | 10 | 1008.0 |
| 20260503223033 | 21 | 92 | 8.0 | 11.3 | 0.00 | 0.00 | 0.00 | 10 | 1007.9 |
| 20260503222532 | 21 | 90 | 16.1 | 20.9 | 0.00 | 0.00 | 0.00 | 10 | 1008.0 |
| 20260503222030 | 21 | 49 | 9.7 | 14.5 | 0.00 | 0.00 | 0.00 | 10 | 1008.1 |
| 20260503221528 | 21 | 61 | 19.3 | 24.1 | 0.00 | 0.00 | 0.00 | 10 | 1008.0 |
| 20260503221025 | 21 | 66 | 3.2 | 4.8 | 0.00 | 0.00 | 0.00 | 10 | 1007.8 |
| 20260503220521 | 21 | 46 | 12.9 | 17.7 | 0.00 | 0.00 | 0.00 | 10 | 1007.9 |
| 20260503220018 | 21 | 303 | 6.4 | 12.9 | 0.00 | 0.00 | 0.00 | 10 | 1008.1 |
| 20260503215515 | 21 | 40 | 14.5 | 16.1 | 0.00 | 0.00 | 0.00 | 10 | 1007.9 |
| 20260503215012 | 21 | 359 | 11.3 | 12.9 | 0.00 | 0.00 | 0.00 | 10 | 1008.0 |
| 20260503214510 | 20 | 36 | 22.5 | 27.4 | 0.00 | 0.00 | 0.00 | 10 | 1008.3 |
| 20260503214006 | 20 | 24 | 14.5 | 22.5 | 0.00 | 0.00 | 0.00 | 10 | 1008.0 |
| 20260503213505 | 21 | 51 | 16.1 | 20.9 | 0.00 | 0.00 | 0.00 | 10 | 1008.2 |
| 20260503213001 | 21 | 31 | 16.1 | 22.5 | 0.00 | 0.00 | 0.00 | 10 | 1008.3 |
| 20260503212459 | 21 | 38 | 20.9 | 29.0 | 0.00 | 0.00 | 0.00 | 10 | 1008.2 |
| 20260503211956 | 21 | 48 | 19.3 | 24.1 | 0.00 | 0.00 | 0.00 | 10 | 1008.3 |
| 20260503211453 | 21 | 301 | 11.3 | 14.5 | 0.00 | 0.00 | 0.00 | 10 | 1008.2 |
| 20260503210948 | 22 | 304 | 16.1 | 17.7 | 0.00 | 0.00 | 0.00 | 10 | 1008.5 |
| 20260503210445 | 21 | 239 | 27.4 | 33.8 | 0.00 | 0.00 | 0.00 | 10 | 1008.1 |
| 20260503205940 | 22 | 243 | 14.5 | 17.7 | 0.00 | 0.00 | 0.00 | 10 | 1008.2 |
| 20260503205437 | 21 | 254 | 20.9 | 27.4 | 0.00 | 0.00 | 0.00 | 10 | 1008.0 |
| 20260503204933 | 21 | 206 | 14.5 | 20.9 | 0.00 | 0.00 | 0.00 | 10 | 1007.9 |
| 20260503204431 | 21 | 154 | 16.1 | 17.7 | 0.00 | 0.00 | 0.00 | 10 | 1008.2 |
| 20260503203928 | 21 | 180 | 6.4 | 8.0 | 0.00 | 0.00 | 0.00 | 10 | 1008.6 |
| 20260503203425 | 20 | 163 | 6.4 | 11.3 | 0.00 | 0.00 | 0.00 | 10 | 1008.5 |
| 20260503202921 | 21 | 182 | 9.7 | 12.9 | 0.00 | 0.00 | 0.00 | 10 | 1008.6 |
| 20260503202420 | 21 | 182 | 3.2 | 3.2 | 0.00 | 0.00 | 0.00 | 10 | 1008.9 |
| 20260503201918 | 20 | 177 | 8.0 | 11.3 | 0.00 | 0.00 | 0.00 | 10 | 1009.0 |
| 20260503201415 | 20 | 180 | 4.8 | 4.8 | 0.00 | 0.00 | 0.00 | 10 | 1009.0 |
| 20260503200912 | 18 | 229 | 14.5 | 16.1 | 0.00 | 0.00 | 0.00 | 10 | 1009.0 |
| 20260503200408 | 19 | 199 | 11.3 | 16.1 | 0.00 | 0.00 | 0.00 | 10 | 1009.4 |
| 20260503195905 | 18 | 208 | 14.5 | 16.1 | 0.00 | 0.00 | 0.00 | 10 | 1009.1 |
| 20260503195402 | 18 | 210 | 12.9 | 25.7 | 0.00 | 0.00 | 0.00 | 10 | 1009.4 |
| 20260503194859 | 18 | 196 | 12.9 | 17.7 | 0.00 | 0.00 | 0.00 | 10 | 1009.4 |
| 20260503194355 | 20 | 174 | 11.3 | 16.1 | 0.00 | 0.00 | 0.00 | 10 | 1009.7 |
| 20260503193851 | 18 | 165 | 9.7 | 11.3 | 0.00 | 0.00 | 0.00 | 10 | 1009.6 |
| 20260503193347 | 19 | 173 | 9.7 | 11.3 | 0.00 | 0.00 | 0.00 | 10 | 1009.5 |
| 20260503192843 | 19 | 203 | 12.9 | 16.1 | 0.00 | 0.00 | 0.00 | 10 | 1009.8 |
| 20260503192339 | 18 | 169 | 16.1 | 24.1 | 0.00 | 0.00 | 0.00 | 10 | 1010.1 |
| 20260503191835 | 19 | 176 | 9.7 | 12.9 | 0.00 | 0.00 | 0.00 | 10 | 1010.0 |
| 20260503191333 | 17 | 200 | 11.3 | 16.1 | 0.00 | 0.00 | 0.00 | 10 | 1010.1 |
| 20260503190829 | 18 | 184 | 12.9 | 16.1 | 0.00 | 0.00 | 0.00 | 10 | 1010.0 |
| 20260503190326 | 18 | 235 | 12.9 | 16.1 | 0.00 | 0.00 | 0.00 | 10 | 1010.1 |
| 20260503185823 | 20 | 190 | 12.9 | 14.5 | 0.00 | 0.00 | 0.00 | 10 | 1010.3 |
| 20260503185319 | 18 | 163 | 8.0 | 11.3 | 0.00 | 0.00 | 0.00 | 10 | 1010.5 |
| 20260503184814 | 18 | 186 | 8.0 | 9.7 | 0.00 | 0.00 | 0.00 | 10 | 1010.4 |
| 20260503184310 | 18 | 190 | 8.0 | 12.9 | 0.00 | 0.00 | 0.00 | 10 | 1010.4 |
| 20260503183806 | 18 | 155 | 9.7 | 11.3 | 0.00 | 0.00 | 0.00 | 10 | 1010.8 |
| 20260503183304 | 18 | 207 | 11.3 | 12.9 | 0.00 | 0.00 | 0.00 | 10 | 1010.9 |
| 20260503182801 | 20 | 224 | 6.4 | 9.7 | 0.00 | 0.00 | 0.00 | 10 | 1010.9 |
| 20260503182300 | 19 | 155 | 8.0 | 11.3 | 0.00 | 0.00 | 0.00 | 10 | 1010.8 |
| 20260503181756 | 18 | 237 | 8.0 | 9.7 | 0.00 | 0.00 | 0.00 | 10 | 1010.9 |
| 20260503181253 | 18 | 222 | 8.0 | 9.7 | 0.00 | 0.00 | 0.00 | 10 | 1011.0 |
| 20260503180750 | 18 | 311 | 11.3 | 14.5 | 0.00 | 0.00 | 0.00 | 10 | 1011.2 |
| 20260503180248 | 18 | 232 | 9.7 | 11.3 | 0.00 | 0.00 | 0.00 | 10 | 1011.0 |
| 20260503175744 | 18 | 308 | 16.1 | 17.7 | 0.00 | 0.00 | 0.00 | 10 | 1011.4 |
| 20260503175242 | 18 | 235 | 9.7 | 12.9 | 0.00 | 0.00 | 0.00 | 10 | 1011.3 |
| 20260503174738 | 18 | 293 | 9.7 | 12.9 | 0.00 | 0.00 | 0.00 | 10 | 1011.2 |
| 20260503174237 | 19 | 211 | 8.0 | 11.3 | 0.00 | 0.00 | 0.00 | 10 | 1011.4 |
| 20260503173736 | 18 | 168 | 6.4 | 8.0 | 0.00 | 0.00 | 0.00 | 10 | 1011.8 |
| 20260503173233 | 17 | 214 | 4.8 | 8.0 | 0.00 | 0.00 | 0.00 | 10 | 1011.5 |
| 20260503172730 | 17 | 185 | 3.2 | 8.0 | 0.00 | 0.00 | 0.00 | 10 | 1011.7 |
| 20260503172227 | 16 | 192 | 4.8 | 8.0 | 0.00 | 0.00 | 0.00 | 10 | 1011.7 |
| 20260503171723 | 16 | 183 | 3.2 | 3.2 | 0.00 | 0.00 | 0.00 | 10 | 1011.9 |
| 20260503171220 | 16 | 168 | 1.6 | 1.6 | 0.00 | 0.00 | 0.00 | 10 | 1011.9 |
| 20260503170717 | 15 | 179 | 11.3 | 14.5 | 0.00 | 0.00 | 0.00 | 10 | 1012.1 |
| 20260503170214 | 15 | 185 | 8.0 | 11.3 | 0.00 | 0.00 | 0.00 | 10 | 1012.1 |
| 20260503160136 | 15 | 192 | 14.5 | 16.1 | 0.00 | 0.00 | 0.00 | 10 | 1012.3 |
| 20260503150606 | 12 | 175 | 4.8 | 9.7 | 0.00 | 0.00 | 0.00 | 10 | 1013.1 |
| 20260503130955 | 2 | 270 | 8.0 | 9.7 | 0.00 | 0.00 | 0.00 | 10 | 1013.4 |
| 20260503130453 | 2 | 264 | 8.0 | 9.7 | 0.00 | 0.00 | 0.00 | 10 | 1013.3 |
| 20260503110344 | 1 | 214 | 3.2 | 3.2 | 0.00 | 0.00 | 0.00 | 10 | 1014.1 |
| 20260503090235 | 2 | 272 | 6.4 | 8.0 | 0.00 | 0.00 | 0.00 | 10 | 1013.7 |
| 20260503081202 | 3 | 300 | 8.0 | 9.7 | 0.00 | 0.00 | 0.00 | 10 | 1013.7 |
| 20260503080658 | 3 | 209 | 3.2 | 3.2 | 0.00 | 0.00 | 0.00 | 10 | 1013.5 |